Location: Boiro
(42.6475°N, 8.8834°W)
Time: 11:11:15
(UTC+02:00)

AO-85 - Pass Details

Date: 26 April 2024
Orbit: 485 x 752 km, 64.8° (Epoch: 10 September)

Event Time Altitude Azimuth Distance (km) Brightness Sun altitude
Exits shadow 01:06:39 10° 48° (NE) 2,017 ? -30.3°
Drops below altitude 10° 01:06:41 10° 48° (NE) 2,030 ? -30.3°
Enters shadow 02:13:01 -53° 219° (SW) 10,778 ? -33.5°
